Location: Gwatt
(46.7204°N, 7.6223°E)
Time: 01:10:24
(UTC+00:00)

Vanguard 2 - Pass Details

Date: 26 January 2021
Orbit: 552 x 2938 km, 32.9° (Epoch: 03 March)

Event Time Altitude Azimuth Distance (km) Brightness Sun altitude
Rises 19:24:41 0° 245° (WSW) 2,957 11.4 -30.8°
Reaches altitude 10° 19:28:43 10° 208° (SSW) 2,352 10.2 -31.5°
Maximum altitude 19:30:12 11° 192° (SSW) 2,410 10.1 -31.8°
Enters shadow 19:30:14 11° 192° (SSW) 2,412 10.1 -31.8°
Drops below altitude 10° 19:31:52 10° 176° (S) 2,646 - -32.0°
Sets 19:37:35 0° 145° (SE) 4,202 - -33.0°
